| time (UTC) | temp F | wind direction | speed MPH | gust MPH | rain 1hr in | rain 24hr in | rain mn in | humidity % | barometer mb |
| 20260506073032 | 51 | 274 | 1.0 | 6.0 | 0.00 | 0.00 | 0.00 | 88 | 1017.5 |
| 20260506071530 | 51 | 279 | 3.0 | 6.0 | 0.00 | 0.00 | 0.00 | 87 | 1017.5 |
| 20260506061527 | 55 | 135 | 1.0 | 6.0 | 0.00 | 0.00 | 0.00 | 80 | 1017.2 |
| 20260506060134 | 55 | 265 | 4.0 | 9.0 | 0.00 | 0.00 | 0.00 | 80 | 1017.1 |
| 20260506044533 | 56 | 289 | 7.0 | 12.0 | 0.00 | 0.00 | 0.00 | 78 | 1016.4 |
| 20260506043029 | 56 | 286 | 8.0 | 17.0 | 0.00 | 0.00 | 0.00 | 77 | 1016.2 |
| 20260506041530 | 57 | 286 | 6.0 | 13.0 | 0.00 | 0.00 | 0.00 | 76 | 1016.2 |
| 20260506040035 | 57 | 291 | 5.0 | 14.0 | 0.00 | 0.00 | 0.00 | 75 | 1016.0 |
| 20260506034533 | 57 | 290 | 8.0 | 17.0 | 0.00 | 0.00 | 0.00 | 74 | 1015.7 |
| 20260506033030 | 58 | 286 | 4.0 | 15.0 | 0.00 | 0.00 | 0.00 | 72 | 1015.6 |
| 20260506030144 | 60 | 251 | 4.0 | 9.0 | 0.00 | 0.00 | 0.00 | 69 | 1015.3 |
| 20260506024532 | 61 | 271 | 3.0 | 7.0 | 0.00 | 0.00 | 0.00 | 68 | 1015.2 |
| 20260506023028 | 62 | 283 | 3.0 | 11.0 | 0.00 | 0.00 | 0.00 | 65 | 1015.1 |
| 20260506021532 | 64 | 129 | 0.0 | 6.0 | 0.00 | 0.00 | 0.00 | 62 | 1015.1 |
| 20260506014530 | 68 | 343 | 2.0 | 5.0 | 0.00 | 0.00 | 0.00 | 57 | 1014.9 |
| 20260506013033 | 71 | 126 | 2.0 | 5.0 | 0.00 | 0.00 | 0.00 | 54 | 1014.9 |
| 20260506011644 | 72 | 277 | 2.0 | 5.0 | 0.00 | 0.00 | 0.00 | 51 | 1014.8 |
| 20260506010030 | 72 | 264 | 3.0 | 8.0 | 0.00 | 0.00 | 0.00 | 51 | 1014.8 |
| 20260506004533 | 72 | 266 | 6.0 | 13.0 | 0.00 | 0.00 | 0.00 | 49 | 1014.7 |
| 20260506003029 | 74 | 240 | 5.0 | 13.0 | 0.00 | 0.00 | 0.00 | 47 | 1014.7 |
| 20260506001534 | 75 | 279 | 6.0 | 12.0 | 0.00 | 0.00 | 0.00 | 47 | 1014.7 |
| 20260506000032 | 74 | 316 | 3.0 | 11.0 | 0.00 | 0.00 | 0.00 | 48 | 1014.9 |
| 20260505233033 | 71 | 321 | 6.0 | 12.0 | 0.00 | 0.00 | 0.00 | 52 | 1015.0 |
| 20260505231530 | 71 | 319 | 8.0 | 13.0 | 0.00 | 0.00 | 0.00 | 52 | 1015.1 |
| 20260505230031 | 72 | 316 | 9.0 | 18.0 | 0.00 | 0.00 | 0.00 | 51 | 1015.1 |
| 20260505223107 | 72 | 327 | 8.0 | 15.0 | 0.00 | 0.00 | 0.00 | 52 | 1015.2 |
| 20260505220031 | 72 | 319 | 8.0 | 17.0 | 0.00 | 0.00 | 0.00 | 50 | 1015.5 |
| 20260505214533 | 73 | 316 | 7.0 | 18.0 | 0.00 | 0.00 | 0.00 | 51 | 1015.5 |
| 20260505213028 | 73 | 321 | 6.0 | 14.0 | 0.00 | 0.00 | 0.00 | 51 | 1015.5 |
| 20260505211532 | 74 | 312 | 7.0 | 14.0 | 0.00 | 0.00 | 0.00 | 50 | 1015.6 |
| 20260505210035 | 71 | 312 | 6.0 | 14.0 | 0.00 | 0.00 | 0.00 | 54 | 1015.8 |
| 20260505204531 | 70 | 330 | 8.0 | 15.0 | 0.00 | 0.00 | 0.00 | 55 | 1015.9 |
| 20260505203032 | 68 | 338 | 8.0 | 16.0 | 0.00 | 0.00 | 0.00 | 56 | 1015.9 |
| 20260505201529 | 67 | 335 | 10.0 | 18.0 | 0.00 | 0.00 | 0.00 | 57 | 1016.0 |
| 20260505200033 | 68 | 330 | 10.0 | 19.0 | 0.00 | 0.00 | 0.00 | 57 | 1016.1 |
| 20260505194529 | 67 | 329 | 10.0 | 20.0 | 0.00 | 0.00 | 0.00 | 57 | 1016.1 |
| 20260505193030 | 66 | 327 | 9.0 | 17.0 | 0.00 | 0.00 | 0.00 | 60 | 1016.2 |
| 20260505191530 | 65 | 326 | 8.0 | 16.0 | 0.00 | 0.00 | 0.00 | 61 | 1016.2 |
| 20260505190032 | 65 | 324 | 9.0 | 16.0 | 0.00 | 0.00 | 0.00 | 62 | 1016.3 |
| 20260505184529 | 64 | 326 | 9.0 | 18.0 | 0.00 | 0.00 | 0.00 | 64 | 1016.3 |
| 20260505183031 | 63 | 324 | 9.0 | 17.0 | 0.00 | 0.00 | 0.00 | 65 | 1016.4 |
| 20260505180030 | 62 | 331 | 10.0 | 19.0 | 0.00 | 0.00 | 0.00 | 66 | 1016.3 |
| 20260505174530 | 62 | 326 | 10.0 | 17.0 | 0.00 | 0.00 | 0.00 | 67 | 1016.3 |
| 20260505173026 | 61 | 332 | 9.0 | 16.0 | 0.00 | 0.00 | 0.00 | 68 | 1016.2 |
| 20260505161605 | 59 | 302 | 7.0 | 14.0 | 0.00 | 0.00 | 0.00 | 70 | 1016.1 |
| 20260505153031 | 59 | 302 | 5.0 | 11.0 | 0.00 | 0.00 | 0.00 | 71 | 1015.9 |
| 20260505151532 | 58 | 308 | 3.0 | 9.0 | 0.00 | 0.00 | 0.00 | 72 | 1015.9 |
| 20260505124531 | 51 | 273 | 1.0 | 5.0 | 0.00 | 0.00 | 0.00 | 86 | 1014.8 |
| 20260505123032 | 52 | 288 | 1.0 | 4.0 | 0.00 | 0.00 | 0.00 | 86 | 1014.8 |
| 20260505121608 | 52 | 314 | 3.0 | 5.0 | 0.00 | 0.00 | 0.00 | 86 | 1014.8 |
| 20260505120032 | 52 | 344 | 1.0 | 3.0 | 0.00 | 0.00 | 0.00 | 86 | 1014.7 |
| 20260505114605 | 53 | 323 | 1.0 | 4.0 | 0.00 | 0.00 | 0.00 | 85 | 1014.7 |
| 20260505113034 | 53 | 356 | 0.0 | 5.0 | 0.00 | 0.00 | 0.00 | 85 | 1014.6 |
| 20260505111604 | 53 | 336 | 1.0 | 5.0 | 0.00 | 0.00 | 0.00 | 86 | 1014.6 |
| 20260505101531 | 54 | 12 | 1.0 | 4.0 | 0.00 | 0.00 | 0.00 | 83 | 1014.2 |
| 20260505100038 | 55 | 12 | 1.0 | 4.0 | 0.00 | 0.00 | 0.00 | 83 | 1014.1 |
| 20260505094530 | 54 | 313 | 1.0 | 4.0 | 0.00 | 0.00 | 0.00 | 83 | 1014.0 |
| 20260505093031 | 55 | 334 | 2.0 | 8.0 | 0.00 | 0.00 | 0.00 | 83 | 1014.0 |
| 20260505091608 | 55 | 299 | 1.0 | 8.0 | 0.00 | 0.00 | 0.00 | 83 | 1013.9 |
| 20260505090030 | 55 | 320 | 1.0 | 4.0 | 0.00 | 0.00 | 0.00 | 83 | 1013.7 |
| 20260505084535 | 55 | 342 | 1.0 | 3.0 | 0.00 | 0.00 | 0.00 | 82 | 1013.8 |
| 20260505083029 | 55 | 328 | 2.0 | 5.0 | 0.00 | 0.00 | 0.00 | 81 | 1013.7 |
| 20260505081530 | 56 | 356 | 1.0 | 5.0 | 0.00 | 0.00 | 0.00 | 79 | 1013.7 |
| 20260505080031 | 57 | 353 | 2.0 | 5.0 | 0.00 | 0.00 | 0.00 | 78 | 1013.6 |
| 20260505074530 | 58 | 321 | 2.0 | 5.0 | 0.00 | 0.00 | 0.00 | 76 | 1013.6 |